EN

Hourly Weather Meneuztamak

Today, 30 September, Wednesday

Time Temperature Precipitation Wind Pressure Humidity
00:00 +12°C° 0 mm 1 mps 762 mmHg 82%
01:00 +12°C° 0 mm 1 mps 762 mmHg 84%
02:00 +11°C° 0 mm 1 mps 762 mmHg 84%
03:00 +11°C° 0 mm 1 mps 762 mmHg 84%
04:00 +11°C° 0 mm 1 mps 762 mmHg 85%
05:00 +11°C° 0 mm 1 mps 762 mmHg 84%
06:00 +11°C° 0 mm 1 mps 762 mmHg 84%
07:00 +10°C° 0 mm 1 mps 762 mmHg 83%
08:00 +12°C° 0 mm 1 mps 762 mmHg 76%
09:00 +14°C° 0 mm 1 mps 762 mmHg 69%
10:00 +16°C° 0 mm 1 mps 762 mmHg 61%
11:00 +18°C° 0 mm 1 mps 762 mmHg 57%
12:00 +18°C° 0 mm 2 mps 762 mmHg 53%
13:00 +19°C° 0 mm 2 mps 762 mmHg 49%
14:00 +19°C° 0 mm 2 mps 762 mmHg 49%
15:00 +19°C° 0 mm 2 mps 762 mmHg 50%
16:00 +19°C° 0 mm 2 mps 762 mmHg 50%
17:00 +17°C° 0 mm 2 mps 761 mmHg 56%
18:00 +16°C° 0 mm 1 mps 761 mmHg 62%
19:00 +14°C° 0 mm 1 mps 761 mmHg 68%
20:00 +14°C° 0 mm 1 mps 761 mmHg 70%
21:00 +13°C° 0 mm 1 mps 761 mmHg 72%
22:00 +13°C° 0 mm 1 mps 761 mmHg 75%
23:00 +12°C° 0 mm 1 mps 761 mmHg 77%

Tomorrow, 1 October, Thursday

Time Temperature Precipitation Wind Pressure Humidity
00:00 +12°C° 0 mm 1 mps 761 mmHg 80%
01:00 +12°C° 0 mm 1 mps 761 mmHg 83%
02:00 +11°C° 0 mm 1 mps 762 mmHg 84%
03:00 +11°C° 0 mm 1 mps 762 mmHg 85%
04:00 +10°C° 0 mm 0 mps 762 mmHg 86%
05:00 +10°C° 0 mm 0 mps 762 mmHg 87%
06:00 +10°C° 0 mm 0 mps 762 mmHg 88%
07:00 +10°C° 0 mm 0 mps 762 mmHg 88%
08:00 +12°C° 0 mm 1 mps 762 mmHg 82%
09:00 +14°C° 0 mm 1 mps 762 mmHg 76%
10:00 +15°C° 0 mm 1 mps 762 mmHg 70%
11:00 +16°C° 0 mm 1 mps 761 mmHg 66%
12:00 +19°C° 0 mm 1 mps 761 mmHg 61%
13:00 +20°C° 0 mm 1 mps 761 mmHg 57%
14:00 +20°C° 0 mm 1 mps 761 mmHg 57%
15:00 +20°C° 0 mm 1 mps 761 mmHg 56%
16:00 +20°C° 0 mm 1 mps 760 mmHg 56%
17:00 +18°C° 0 mm 1 mps 760 mmHg 62%
18:00 +16°C° 0 mm 1 mps 760 mmHg 69%
19:00 +14°C° 0 mm 1 mps 760 mmHg 75%
20:00 +14°C° 0 mm 1 mps 760 mmHg 77%
21:00 +13°C° 0 mm 1 mps 760 mmHg 79%
22:00 +12°C° 0 mm 1 mps 760 mmHg 81%
23:00 +12°C° 0 mm 1 mps 760 mmHg 82%

Day after tomorrow, 2 October, Friday

Time Temperature Precipitation Wind Pressure Humidity
00:00 +11°C° 0 mm 0 mps 760 mmHg 82%
01:00 +10°C° 0 mm 0 mps 760 mmHg 83%
02:00 +10°C° 0 mm 0 mps 760 mmHg 84%
03:00 +10°C° 0 mm 0 mps 760 mmHg 85%
04:00 +10°C° 0 mm 0 mps 760 mmHg 85%
05:00 +10°C° 0 mm 0 mps 760 mmHg 86%
06:00 +9°C° 0 mm 0 mps 760 mmHg 86%
07:00 +9°C° 0 mm 0 mps 760 mmHg 86%
08:00 +11°C° 0 mm 0 mps 760 mmHg 80%
09:00 +13°C° 0 mm 0 mps 760 mmHg 74%
10:00 +15°C° 0 mm 0 mps 760 mmHg 67%
11:00 +16°C° 0 mm 0 mps 760 mmHg 63%
12:00 +16°C° 0 mm 0 mps 760 mmHg 59%
13:00 +17°C° 0 mm 0 mps 760 mmHg 54%
14:00 +17°C° 0 mm 0 mps 760 mmHg 53%
15:00 +19°C° 0 mm 1 mps 759 mmHg 51%
16:00 +20°C° 0 mm 1 mps 759 mmHg 50%
17:00 +18°C° 0 mm 1 mps 759 mmHg 56%
18:00 +15°C° 0 mm 1 mps 759 mmHg 61%
19:00 +14°C° 0 mm 1 mps 759 mmHg 67%
20:00 +13°C° 0 mm 1 mps 759 mmHg 69%
21:00 +12°C° 0 mm 0 mps 759 mmHg 71%
22:00 +11°C° 0 mm 0 mps 759 mmHg 74%
23:00 +11°C° 0 mm 0 mps 759 mmHg 76%

3 October, Saturday

Time Temperature Precipitation Wind Pressure Humidity
00:00 +12°C° 0 mm 1 mps 759 mmHg 78%
01:00 +11°C° 0 mm 1 mps 759 mmHg 80%
02:00 +11°C° 0 mm 1 mps 759 mmHg 82%
03:00 +11°C° 0 mm 1 mps 759 mmHg 84%
04:00 +11°C° 0 mm 1 mps 759 mmHg 86%
05:00 +10°C° 0 mm 1 mps 759 mmHg 87%
06:00 +10°C° 0 mm 1 mps 759 mmHg 88%
07:00 +10°C° 0 mm 1 mps 759 mmHg 89%
08:00 +12°C° 0 mm 1 mps 759 mmHg 82%
09:00 +13°C° 0 mm 2 mps 759 mmHg 76%
10:00 +15°C° 0 mm 2 mps 759 mmHg 69%
11:00 +16°C° 0 mm 2 mps 759 mmHg 65%
12:00 +17°C° 0 mm 2 mps 759 mmHg 60%
13:00 +18°C° 0 mm 3 mps 759 mmHg 55%
14:00 +17°C° 0 mm 3 mps 759 mmHg 57%
15:00 +17°C° 0 mm 3 mps 758 mmHg 58%
16:00 +17°C° 0 mm 3 mps 758 mmHg 60%
17:00 +14°C° 0 mm 3 mps 758 mmHg 66%
18:00 +14°C° 0 mm 2 mps 759 mmHg 73%
19:00 +13°C° 0 mm 2 mps 759 mmHg 79%
20:00 +12°C° 0 mm 2 mps 759 mmHg 83%
21:00 +10°C° 0 mm 2 mps 759 mmHg 86%
22:00 +10°C° 0 mm 2 mps 759 mmHg 90%
23:00 +10°C° 0 mm 2 mps 759 mmHg 89%

4 October, Sunday

Time Temperature Precipitation Wind Pressure Humidity
00:00 +9°C° 0 mm 2 mps 759 mmHg 88%
01:00 +9°C° 0 mm 2 mps 759 mmHg 87%
02:00 +8°C° 0 mm 2 mps 759 mmHg 88%
03:00 +8°C° 0 mm 2 mps 759 mmHg 88%
04:00 +7°C° 0 mm 2 mps 759 mmHg 88%
05:00 +7°C° 0 mm 2 mps 760 mmHg 90%
06:00 +7°C° 0 mm 2 mps 760 mmHg 91%
07:00 +7°C° 0 mm 2 mps 760 mmHg 93%
08:00 +8°C° 0 mm 3 mps 760 mmHg 86%
09:00 +9°C° 0 mm 3 mps 761 mmHg 80%
10:00 +11°C° 0 mm 3 mps 761 mmHg 73%
11:00 +11°C° 0 mm 3 mps 761 mmHg 68%
12:00 +12°C° 0 mm 3 mps 761 mmHg 62%
13:00 +14°C° 0 mm 2 mps 761 mmHg 57%
14:00 +14°C° 0 mm 2 mps 761 mmHg 56%
15:00 +14°C° 0 mm 2 mps 761 mmHg 56%
16:00 +14°C° 0 mm 2 mps 761 mmHg 55%
17:00 +13°C° 0 mm 2 mps 761 mmHg 61%
18:00 +12°C° 0 mm 2 mps 761 mmHg 66%
19:00 +10°C° 0 mm 2 mps 761 mmHg 71%
20:00 +9°C° 0 mm 2 mps 761 mmHg 74%
21:00 +8°C° 0 mm 2 mps 761 mmHg 77%
22:00 +8°C° 0 mm 2 mps 761 mmHg 80%
23:00 +8°C° 0 mm 1 mps 761 mmHg 81%

5 October, Monday

Time Temperature Precipitation Wind Pressure Humidity
00:00 +8°C° 0 mm 1 mps 761 mmHg 82%
01:00 +7°C° 0 mm 1 mps 762 mmHg 82%
02:00 +7°C° 0 mm 1 mps 762 mmHg 83%
03:00 +7°C° 0 mm 1 mps 762 mmHg 84%
04:00 +6°C° 0 mm 1 mps 762 mmHg 86%
05:00 +6°C° 0 mm 1 mps 762 mmHg 86%
06:00 +6°C° 0 mm 1 mps 762 mmHg 86%
07:00 +5°C° 0 mm 0 mps 762 mmHg 86%
08:00 +7°C° 0 mm 1 mps 762 mmHg 78%
09:00 +9°C° 0 mm 1 mps 762 mmHg 70%
10:00 +11°C° 0 mm 1 mps 762 mmHg 62%
11:00 +12°C° 0 mm 1 mps 762 mmHg 59%
12:00 +13°C° 0 mm 1 mps 762 mmHg 56%
13:00 +14°C° 0 mm 1 mps 762 mmHg 52%
14:00 +14°C° 0 mm 1 mps 762 mmHg 51%
15:00 +14°C° 0 mm 1 mps 761 mmHg 50%
16:00 +14°C° 0 mm 1 mps 761 mmHg 49%
17:00 +12°C° 0 mm 0 mps 761 mmHg 54%
18:00 +10°C° 0 mm 0 mps 761 mmHg 59%
19:00 +9°C° 0 mm 0 mps 761 mmHg 64%
20:00 +8°C° 0 mm 0 mps 761 mmHg 66%
21:00 +8°C° 0 mm 0 mps 761 mmHg 69%
22:00 +8°C° 0 mm 1 mps 761 mmHg 71%
23:00 +8°C° 0 mm 1 mps 761 mmHg 73%
Show more

We Need Your Consent

Meteoprog and our Service Providers may store and access personal data such as cookies, device identifiers or other similar technologies on your device and process such data to personalise content and ads, as well as provide social media features and to analyse the traffic.

  • Store and/or access information on your device

    Cookies, device identifiers or other information can be stored or accessed on your device for the purposes indicated above.

  • Personalised ads and content, ad and content measurement, audience insights, and products development

    Ads and content can be personalised based on a profile. More data can be added to better personalise ads and content. Ad and content performance can be measured. Insights about the audience who saw the ads and content can be derived. Such data can be used to develop or improve user’s experience, systems and software.

By clicking ‘I Agree’ you will allow the use of indicated cookies, device identifiers, web beacons or other similar technologies. Your settings can be changed in the browser on your device.

For certain purposes, legitimate interests may be relied on, rather than consent. You can read more about this in our Privacy and Cookie Policy.